Regional Weather Roundup
Issued by NWS

Home | Current Version | Previous Version | Graphics & Text | Print | Product List | Glossary On
Versions: 1 2 3 4 5 6 7 8 9 10 11 12 13 14 15 16 17 18 19 20 21 22 23 24 25 26 27 28 29 30 31 32 33 34 35 36 37 38 39 40 41 42 43 44 45 46 47 48 49 50
000
ASUS45 KPSR 291410
RWRAZ

ARIZONA REGIONAL HOURLY WEATHER ROUNDUP
NATIONAL WEATHER SERVICE PHOENIX AZ
700 AM MST THU JAN 29 2015

NOTE: FAIR INDICATES FEW OR NO CLOUDS BELOW 12,000 FEET WITH NO
SIGNIFICANT WEATHER AND/OR OBSTRUCTIONS TO VISIBILITY.

AZZ001>003-036-291500-
NORTHWEST ARIZONA

CITY           SKY/WX    TMP DP  RH WIND       PRES   REMARKS
BULLHEAD CITY  CLOUDY    63  46  55 N21G26    30.08S
KINGMAN        CLOUDY    46  42  86 SE6       30.15S
$$

AZZ004>008-015-016-018-291500-
NORTH CENTRAL ARIZONA

CITY           SKY/WX    TMP DP  RH WIND       PRES   REMARKS
GRAND CANYON   CLOUDY    41  28  60 E13G24    30.27R
PRESCOTT       CLOUDY    41  31  67 S7        30.19S
FLAGSTAFF      CLOUDY    37  27  67 E3        30.27R
PAYSON         CLOUDY    48  30  49 NE7       30.21R
$$

AZZ009>014-017-291500-
NORTHEAST ARIZONA

CITY           SKY/WX    TMP DP  RH WIND       PRES   REMARKS
WINSLOW        CLOUDY    40  34  79 CALM      30.27R
SAINT JOHNS    MOCLDY    33  30  88 S3        30.25S
WINDOW ROCK    CLOUDY    33  28  81 CALM      30.32S
SHOW LOW       MOCLDY    30  27  86 NW3       30.28R
$$

AZZ023-291500-
GREATER PHOENIX AREA

CITY           SKY/WX    TMP DP  RH WIND       PRES   REMARKS
PHOENIX        CLOUDY    59  51  75 CALM      30.04R
BUCKEYE          N/A     54  54 100 E3        30.05S
GLENDALE       MOCLDY    55  55 100 CALM      30.06S
LUKE AFB       NOT AVBL
DEER VALLEY    MOCLDY    55  45  68 CALM      30.05R
SCOTTSDALE     MOCLDY    57  48  72 CALM      30.06S
MESA-FALCON    MOCLDY    57  46  67 N6        30.05S
MESA-GATEWAY   MOCLDY    54  50  87 E7        30.07S
CHANDLER       CLOUDY    54  52  94 CALM      30.06R
$$

AZZ027-028-291500-
SOUTHWEST MARICOPA COUNTY AND PINAL COUNTY

CITY           SKY/WX    TMP DP  RH WIND       PRES   REMARKS
CASA GRANDE    CLOUDY    54  48  82 CALM      30.06S
GILA BEND      PTSUNNY   53  52  94 SW1       30.03S
$$

AZZ503-504-507>509-291500-
SOUTHEAST ARIZONA

CITY           SKY/WX    TMP DP  RH WIND       PRES   REMARKS
TUCSON         MOCLDY    54  47  77 SE12      30.10S
DAVIS-MONTHAN  CLOUDY    54  45  71 SE6       30.08S
RYAN FIELD       N/A     54  50  87 E7        30.09S
NOGALES        CLOUDY    47  40  76 SE5       30.14R
SIERRA VISTA   CLOUDY    52  39  62 S6        30.18R
DOUGLAS        CLOUDY    39  28  64 NE3       30.17S
SAFFORD        CLOUDY    53  36  52 SE9       30.14S
$$

AZZ020-021-025-026-031-291500-
SOUTHWEST ARIZONA

CITY           SKY/WX    TMP DP  RH WIND       PRES   REMARKS
YUMA           CLOUDY    62  48  60 NW6       30.04R
$$

CAZ031-033-041-043-047-048-061-291500-
SOUTHERN CALIFORNIA

CITY           SKY/WX    TMP DP  RH WIND       PRES   REMARKS
DOWNTOWN L.A.  CLOUDY    61  46  57 E3        30.02R
L.A. AIRPORT   CLOUDY    65  43  44 VRB6      30.02R
SAN DIEGO      CLOUDY    61  48  62 CALM      30.02R
BURBANK        CLOUDY    60  44  55 CALM      30.03R
ONTARIO        CLOUDY    57  44  62 N5        30.04R
RIVERSIDE      CLOUDY    60  43  53 E6        30.04S
PALM SPRINGS   CLOUDY    64  40  41 W7        30.08R
EL CENTRO NAS  CLOUDY    58  51  78 W6        30.04R
IMPERIAL       CLOUDY    58  51  78 W3        30.04R
BLYTHE         CLOUDY    57  48  72 NW10      30.05S
NEEDLES        CLOUDY    62  45  53 N7        30.08R
$$

NVZ020-UTZ003-291500-
SOUTHERN NEVADA-UTAH

CITY           SKY/WX    TMP DP  RH WIND       PRES   REMARKS
LAS VEGAS      CLOUDY    55  43  63 S8        30.13R
SALT LAKE CITY PTCLDY    29  27  92 CALM      30.36S
$$

NMZ009-TXZ055-291500-
NEW MEXICO-WEST TEXAS

CITY           SKY/WX    TMP DP  RH WIND       PRES   REMARKS
ALBUQUERQUE    CLOUDY    48  28  46 E20       30.33R
EL PASO        CLOUDY    51  37  58 N13       30.23R
$$


........................KEY........................
SKY/WX - SKY CONDITION/WEATHER
TMP    - TEMPERATURE IN FAHRENHEIT
DP     - DEW POINT IN FAHRENHEIT
RH     - RELATIVE HUMIDITY IN PERCENT
WIND   - DIRECTION AND SPEED IN MILES PER HOUR (MPH)
VRB    - VARIABLE WIND DIRECTION
PRES   - MEAN SEA LEVEL PRESSURE IN INCHES OF MERCURY
         F - FALLING PRESSURE   R - RISING PRESSURE
         S - STEADY PRESSURE
VSB    - VISIBILITY IN MILES
HX     - HEAT INDEX IN FAHRENHEIT
WCI    - WIND CHILL INDEX IN FAHRENHEIT
TC     - TEMPERATURE IN CELSIUS WHICH IS ALSO KNOWN AS
         TEMPERATURE IN CENTIGRADE
AFB    - AIR FORCE BASE
         LUKE AFB IS LUKE AIR FORCE BASE
         DAVIS-MONTHAN IS DAVIS-MONTHAN AIR FORCE BASE
NAS    - NAVAL AIR STATION
         EL CENTRO NAS IS EL CENTRO NAVAL AIR STATION
N/A    - NOT AVAILABLE


USA.gov is the U.S. government's official web portal to all federal, state and local government web resources and services.